Theta_e
315 319 322 323 323 322 320 320 321 322 323 324 326 326 324 324 323 322 324 317 310 314 320 317 315 316 315 316 313 310 309 308 308 308 308 310 311 311 312 311 311 311 312 311 310 310 310 310 310 310 311 311 311 311 311 312 314 314 316 317 317 320 324 322 320 320 323 325 323 322 323 323 322 321 319 319 321 321 320 320 320 320 321 320 320 319
316 321 324 324 320 318 319 318 317 319 320 319 321 321 322 323 322 319 319 317 311 314 322 318 315 315 313 314 312 309 308 308 308 308 309 310 310 311 312 311 312 311 311 310 310 310 310 310 310 310 311 311 311 311 311 313 315 315 315 316 315 317 321 321 321 322 323 323 322 322 321 320 320 318 318 320 321 320 320 320 319 319 319 318 318 317
319 321 322 318 314 314 317 316 315 317 317 318 319 318 321 322 321 320 318 316 312 314 323 322 316 316 315 314 311 308 308 310 311 311 312 312 311 311 311 311 311 311 310 310 310 310 310 310 310 310 311 311 311 311 312 312 314 316 317 317 315 317 320 322 322 322 321 320 321 322 320 320 319 318 319 320 320 320 320 319 319 318 317 316 315 314
322 325 320 312 312 316 318 316 316 316 316 319 319 318 321 321 320 324 321 316 315 315 319 320 317 315 314 314 314 311 310 311 312 312 313 313 312 312 312 312 312 311 311 310 310 310 309 309 309 310 311 311 310 311 312 312 312 316 318 317 317 318 320 322 322 322 321 321 321 321 320 319 318 317 319 320 319 319 319 318 318 316 313 311 310 308
322 322 314 310 314 318 319 318 318 319 320 321 320 318 320 321 320 322 322 320 321 320 317 318 320 321 321 320 317 315 312 311 312 312 312 312 313 313 312 312 311 311 311 311 310 310 310 309 310 310 310 311 310 311 311 311 311 315 317 317 318 318 319 321 322 322 322 322 321 320 319 318 317 317 318 319 318 318 318 317 314 311 307 305 304 303
320 315 312 316 317 316 319 320 321 322 322 323 323 320 318 321 321 320 320 319 324 327 320 318 324 331 333 329 324 323 320 318 314 310 311 313 313 312 311 312 311 310 310 311 311 310 310 310 309 310 310 310 310 310 310 310 311 313 315 318 319 318 318 321 321 321 321 321 320 318 317 316 317 318 318 317 318 317 315 312 308 305 303 302 302 301
318 313 316 325 320 318 320 320 322 321 319 323 324 321 318 318 319 319 319 320 325 328 319 316 323 328 327 324 326 329 329 326 320 312 311 312 313 312 312 313 311 310 310 310 310 310 310 310 309 310 310 311 311 310 310 311 312 312 314 318 320 318 318 320 320 319 319 319 319 317 315 315 316 317 317 316 316 314 310 306 303 302 301 300 300 299
317 315 317 323 323 322 320 320 322 318 320 326 323 320 320 317 318 319 319 321 325 324 320 320 322 322 322 321 323 324 324 324 322 317 314 312 312 313 314 314 312 311 311 310 310 309 309 310 310 310 311 311 311 310 310 311 313 313 312 315 319 318 317 317 318 318 317 317 317 316 314 315 316 317 316 315 313 309 305 302 302 301 300 299 299 298
316 320 319 319 321 321 321 326 323 317 321 325 318 317 320 319 321 322 321 323 321 320 325 326 320 320 325 327 324 320 321 324 323 321 318 314 314 314 314 315 313 312 311 311 310 310 310 310 310 310 310 311 310 309 310 312 313 313 313 313 315 316 316 315 316 316 315 316 315 314 314 315 316 316 314 311 307 304 302 301 300 300 299 299 298 298
315 317 316 317 320 320 324 326 320 318 321 316 313 317 320 321 323 325 325 325 323 321 324 326 322 321 325 328 326 320 323 327 323 321 318 314 314 315 315 314 313 311 310 309 310 310 310 310 310 310 309 310 310 309 310 312 313 313 314 313 313 315 315 314 315 315 315 315 314 313 313 315 316 315 311 306 303 301 300 300 300 299 299 298 298 297
313 312 312 316 318 316 320 318 312 315 316 312 318 325 325 326 326 327 326 324 325 324 323 324 324 322 324 328 327 323 326 329 324 323 323 317 314 315 315 314 313 311 310 309 309 309 309 309 309 309 309 309 310 310 311 312 312 312 314 314 313 315 315 314 315 315 314 313 313 314 314 315 315 313 307 303 302 301 300 300 300 299 298 298 298 297
314 315 314 315 314 312 318 317 311 312 311 315 329 331 327 329 326 326 326 324 326 326 323 323 321 319 323 327 327 323 323 325 322 324 328 324 317 315 315 314 313 312 310 310 309 308 308 308 308 308 308 309 310 310 311 312 311 310 314 315 313 314 314 314 314 313 313 313 313 314 315 315 314 309 305 303 303 301 300 300 299 299 298 298 297 297
318 320 317 314 313 313 321 323 316 314 313 319 329 326 324 327 325 326 326 324 325 323 318 317 318 319 321 323 323 322 322 322 317 315 318 318 315 315 315 314 313 312 311 310 309 309 308 308 308 308 308 309 310 309 310 311 310 310 313 315 313 312 313 314 313 312 313 313 314 314 314 315 312 305 303 303 302 302 301 300 300 300 299 298 298 297
321 321 317 316 315 314 319 322 320 319 318 319 323 324 325 326 327 331 328 323 324 321 315 313 317 321 321 322 323 321 320 319 315 312 313 313 314 315 314 314 314 312 312 311 310 310 309 309 309 308 308 309 309 309 309 310 310 310 311 313 312 312 313 313 313 312 313 314 313 313 313 312 308 303 302 302 301 301 301 300 300 299 299 298 298 298
321 320 319 318 317 316 317 318 322 323 318 318 321 322 324 326 329 332 329 327 326 325 318 313 319 326 327 328 324 315 312 314 314 315 314 313 313 313 312 313 313 312 312 311 310 310 310 309 309 308 308 308 309 309 309 310 310 310 310 311 312 312 312 313 312 313 314 313 313 312 312 309 305 302 301 300 300 301 300 300 299 298 298 297 297 297
318 322 322 316 314 316 317 315 318 321 319 317 319 321 323 325 326 324 323 323 322 323 322 318 321 326 325 325 319 312 312 313 312 311 312 313 312 311 310 311 312 312 312 311 310 310 309 309 309 308 308 308 309 309 309 310 310 310 310 311 312 312 312 313 313 313 313 312 312 311 309 306 302 301 300 300 299 299 299 299 298 297 297 297 297 297
319 323 320 313 313 314 314 315 314 317 320 319 318 321 320 318 320 322 320 317 316 321 323 321 323 325 323 322 319 316 319 318 314 312 310 311 311 309 309 310 311 312 312 311 311 310 310 309 308 308 308 308 309 309 309 309 309 310 310 312 312 312 312 313 313 313 313 312 311 309 306 303 301 300 299 299 299 298 298 298 297 297 296 296 296 296
321 324 318 314 317 313 309 313 313 311 316 321 321 320 317 316 321 325 323 322 322 324 323 321 323 324 323 325 322 318 319 320 320 317 311 308 309 309 309 310 310 311 312 311 311 310 309 309 308 308 308 308 308 309 309 309 309 310 310 312 313 311 312 312 313 313 312 310 309 307 304 302 300 299 298 298 298 298 298 297 297 296 296 296 296 296
320 321 320 314 317 314 310 315 317 312 312 318 321 318 318 324 325 323 323 326 327 325 325 323 321 320 321 322 322 320 321 324 322 319 316 312 309 308 309 309 310 311 311 310 310 310 309 309 308 308 308 308 308 308 309 309 309 310 311 313 313 311 311 312 313 312 310 308 307 304 302 301 299 298 298 297 297 297 297 297 297 296 296 296 296 296
320 319 322 314 312 314 314 317 321 318 312 313 315 314 318 324 323 322 323 323 325 325 326 325 322 321 321 321 324 322 322 325 324 324 325 318 311 309 309 309 310 311 311 311 311 310 309 309 308 308 308 308 308 308 309 309 309 310 311 313 313 312 311 312 312 311 309 306 304 303 301 300 298 297 297 297 297 297 297 297 297 296 296 296 296 296
320 318 321 315 311 315 319 318 319 319 316 316 318 317 317 318 319 321 321 320 324 326 326 326 324 323 323 321 323 322 321 322 324 328 327 317 311 312 310 309 311 311 312 312 312 311 310 309 308 308 307 307 307 307 308 309 310 310 311 312 312 311 311 312 312 310 307 304 303 301 300 299 298 297 296 296 296 296 297 297 296 296 296 296 296 296
319 320 323 320 316 318 320 318 314 316 318 317 318 319 318 317 319 321 321 319 321 323 325 326 323 324 327 322 320 324 327 323 319 320 319 313 310 313 313 311 312 311 312 312 312 311 310 309 308 308 307 307 307 307 308 310 311 311 311 312 312 311 311 311 311 309 306 303 302 301 299 298 297 296 296 296 296 296 296 296 296 296 295 295 296 296
319 323 324 322 319 318 317 313 308 311 316 315 317 320 319 317 319 322 323 321 320 320 321 322 321 323 323 321 320 322 321 316 311 310 311 311 311 313 314 313 311 311 311 311 311 312 310 309 309 308 307 307 306 306 307 309 311 311 312 312 311 311 311 311 311 308 305 302 301 300 299 298 297 296 296 296 296 296 296 296 296 296 295 295 295 295
318 322 322 321 321 319 317 314 309 310 313 315 317 319 319 317 318 322 323 322 322 323 321 320 322 322 319 318 313 308 307 308 308 309 311 312 314 315 314 313 311 310 310 310 310 311 310 308 308 307 307 307 306 306 306 308 311 311 312 312 311 311 311 311 311 309 305 303 301 300 299 297 296 296 296 296 296 296 296 295 295 295 295 295 295 295
318 321 322 322 323 322 320 319 316 312 313 316 319 319 318 318 318 319 321 320 321 323 321 322 324 320 319 319 312 308 310 311 309 309 311 313 316 317 314 312 311 310 309 310 310 310 309 309 308 307 307 307 306 306 306 307 310 311 312 312 311 311 311 312 311 309 306 303 301 300 299 297 296 295 295 295 295 295 295 295 295 295 295 295 295 295
318 321 321 320 322 323 322 322 321 316 314 316 319 318 316 317 317 318 319 320 321 322 321 322 323 320 319 319 316 315 318 317 313 310 311 314 316 317 315 312 311 310 309 309 309 310 310 310 309 308 308 307 307 306 305 306 308 311 312 312 311 311 311 312 311 309 307 304 302 300 299 298 296 295 295 295 295 295 295 295 295 295 295 294 294 294
322 322 319 319 321 321 321 323 322 319 316 317 318 317 316 316 316 317 319 320 321 321 320 320 321 321 321 320 319 318 320 324 322 313 311 314 316 317 316 313 311 310 309 308 309 309 310 310 309 308 308 307 307 306 306 305 307 310 311 311 312 311 311 312 311 310 307 305 303 301 300 298 297 295 295 295 295 295 295 294 294 294 294 294 294 294
325 322 319 320 321 319 321 323 320 319 318 318 318 317 316 316 316 317 319 319 321 322 322 321 320 321 321 319 321 321 322 327 325 313 311 316 317 317 316 314 312 311 309 308 309 309 310 310 309 308 308 307 307 306 306 305 305 308 310 311 311 311 312 312 312 310 307 305 304 302 300 299 297 295 294 294 294 294 294 294 294 294 294 294 294 294
323 321 319 321 321 319 320 321 319 320 319 318 318 318 317 316 316 317 318 318 320 321 321 321 321 322 320 318 320 320 318 320 319 314 314 316 317 316 316 314 313 312 310 310 311 311 310 310 310 309 308 307 307 306 306 305 305 306 309 310 311 311 312 312 312 310 307 305 304 302 300 299 297 296 294 294 294 294 294 294 293 293 293 293 293 293
319 321 321 321 320 320 320 320 320 320 319 318 318 317 317 316 315 316 317 317 318 319 320 320 322 322 319 318 320 319 316 315 314 314 314 315 316 316 315 314 314 314 313 314 314 312 311 310 310 309 308 307 307 307 306 306 305 305 307 309 310 311 311 312 312 309 307 305 303 302 301 299 297 296 295 294 294 294 294 293 293 293 293 293 293 293
315 320 322 321 320 321 320 320 320 320 319 319 318 317 316 316 316 316 316 316 317 318 318 319 321 320 317 318 318 316 315 315 314 313 313 314 315 315 314 314 314 315 315 316 315 313 311 310 309 308 308 308 308 308 307 306 306 305 305 307 309 310 311 311 311 309 307 305 303 302 300 299 297 296 295 294 294 293 293 293 293 293 293 292 292 292
314 319 321 320 320 321 320 320 320 318 318 318 319 319 317 316 316 315 316 316 317 317 318 318 319 319 318 319 317 314 313 314 312 312 312 314 315 314 314 315 315 316 316 317 316 314 311 310 310 309 309 309 309 308 307 307 306 305 305 306 308 309 310 310 310 309 307 305 303 302 300 299 298 296 295 294 294 293 293 293 292 292 292 292 292 292
315 318 319 319 320 321 320 321 320 317 318 319 319 319 318 317 316 316 315 316 316 316 318 318 318 317 318 319 318 317 318 316 313 312 313 314 315 315 315 316 316 317 317 317 316 314 312 311 310 310 309 309 309 309 308 307 306 306 306 305 306 308 309 309 309 308 306 305 303 302 301 299 298 296 296 295 294 293 293 292 292 292 292 292 291 291
315 317 318 318 320 321 320 320 318 318 320 322 320 320 318 317 316 316 315 315 315 315 316 317 317 317 317 318 318 318 319 317 314 314 315 315 315 315 315 316 317 317 317 316 315 313 312 311 310 309 308 308 308 308 307 306 306 306 305 304 304 306 307 307 307 306 305 304 303 302 301 300 298 297 296 295 294 293 293 292 292 292 292 291 291 291
314 315 317 317 319 319 318 317 319 321 321 321 322 321 319 317 316 316 315 314 314 314 315 315 316 316 316 316 315 314 314 314 314 315 316 315 315 315 315 316 317 316 316 315 314 312 311 310 310 309 308 308 307 307 306 305 305 304 304 303 304 304 305 305 305 305 304 304 303 302 301 300 298 297 296 295 294 293 293 292 292 292 291 291 291 290
314 314 315 316 317 317 317 318 321 322 319 320 321 316 313 316 317 315 316 316 314 313 314 314 314 315 315 313 312 312 312 311 312 312 313 313 313 314 315 315 315 315 315 314 312 311 311 310 309 309 308 307 307 306 306 305 304 304 303 303 303 303 303 303 303 303 303 302 302 301 301 300 299 297 296 295 294 294 293 292 292 292 291 291 290 290
315 314 313 315 316 317 318 319 320 320 319 320 320 314 311 316 318 316 317 318 315 314 314 314 314 314 314 313 312 312 310 310 310 310 311 312 313 313 313 313 313 312 312 311 311 311 310 309 309 308 308 307 307 307 306 305 304 303 303 303 302 302 301 301 301 301 301 301 300 300 299 299 298 297 296 295 295 294 293 292 292 291 291 290 290 290
315 314 313 315 316 316 318 319 319 321 320 320 321 317 312 313 315 316 318 319 317 315 313 313 315 314 313 313 312 310 309 311 313 312 311 312 313 312 312 312 312 311 311 311 311 310 309 309 308 308 308 308 308 307 307 306 305 304 304 304 303 303 302 302 302 302 301 300 299 299 298 298 297 297 296 295 295 294 293 292 291 291 290 290 290 290
313 313 313 315 316 316 318 320 320 321 321 321 321 316 310 309 312 315 317 319 318 314 311 312 315 314 313 312 309 308 310 313 314 312 311 312 313 312 312 311 310 310 310 311 310 309 309 309 309 309 309 308 308 308 307 306 306 305 305 305 304 304 303 304 304 303 302 301 300 299 298 297 296 296 295 294 294 293 292 292 291 290 290 290 290 290
311 313 313 314 317 317 317 319 320 319 320 321 318 309 306 309 312 316 319 320 318 313 310 311 313 313 311 310 307 308 312 314 313 311 310 312 312 310 310 309 309 310 310 310 309 309 310 310 310 310 310 309 309 308 307 306 305 305 305 304 304 304 304 304 304 303 302 301 300 298 297 296 296 295 294 294 293 293 292 291 291 290 290 290 289 289
310 312 312 314 316 316 317 319 319 318 320 320 312 304 304 310 314 318 321 317 311 308 308 310 311 311 310 308 307 309 311 310 311 311 310 311 310 309 309 309 309 310 309 309 309 309 310 310 310 310 309 309 308 307 306 306 305 305 304 303 303 304 304 303 302 301 300 299 298 297 296 296 295 294 294 293 293 292 291 291 290 290 290 289 289 289
312 312 313 314 315 316 317 318 318 319 318 314 306 302 306 314 318 317 314 309 306 306 307 308 309 310 310 308 308 309 309 308 309 311 310 310 310 309 309 309 309 309 309 309 309 309 310 309 309 308 307 307 306 306 305 305 304 304 303 303 303 303 301 300 299 299 298 297 297 296 296 295 295 294 293 293 292 292 291 291 290 290 289 289 289 289
313 313 313 313 314 316 316 316 318 320 314 306 304 305 308 315 318 313 306 304 305 307 308 308 309 309 309 308 307 308 308 308 309 309 309 309 308 308 308 308 308 308 309 308 308 308 307 307 306 306 305 305 304 304 303 303 302 302 302 301 301 300 299 298 298 297 297 297 296 296 295 295 294 294 293 293 292 292 291 291 290 290 289 289 289 288
313 314 314 314 314 315 316 317 318 317 310 305 308 311 310 311 312 309 306 305 305 306 308 308 308 309 309 308 307 306 307 308 308 308 307 307 307 307 307 306 306 306 306 306 306 305 304 304 304 303 303 302 301 300 300 300 300 300 299 299 299 298 298 298 297 297 297 296 296 295 295 295 294 294 293 293 292 291 291 291 290 290 289 289 289 288
313 312 313 315 315 314 316 315 312 309 305 305 308 310 309 309 309 307 308 307 306 307 308 307 308 308 308 308 307 306 306 306 306 306 306 306 305 305 305 304 304 304 304 303 303 303 302 301 301 301 300 298 298 297 297 297 297 297 297 297 298 298 298 298 298 297 297 297 296 296 295 295 294 294 293 292 292 291 291 291 290 290 290 289 289 289
308 305 308 313 314 313 312 309 305 304 303 304 306 307 308 309 308 306 307 307 307 307 307 307 308 308 307 307 307 306 306 306 305 304 304 303 303 302 302 302 302 302 302 301 302 301 299 298 298 297 296 296 295 295 295 295 295 296 296 296 297 297 297 298 298 298 297 297 297 296 296 295 295 294 293 293 292 292 291 291 290 290 290 289 289 289
306 304 306 311 313 314 314 311 307 306 304 304 305 305 306 308 308 306 306 308 308 307 306 306 307 307 307 307 307 307 306 304 303 303 302 302 302 301 300 300 300 299 299 299 298 298 296 296 295 295 295 295 294 294 294 294 294 294 295 295 295 296 296 296 297 297 297 297 296 296 295 295 294 294 293 293 293 292 292 292 291 291 290 290 290 290
308 305 307 312 312 312 312 307 302 301 301 302 304 304 304 307 307 305 305 307 307 306 306 305 305 305 306 307 307 306 305 303 303 303 303 302 301 299 298 298 298 297 297 296 295 295 295 295 295 294 294 294 294 293 293 293 293 293 293 294 294 294 294 294 295 295 294 294 293 293 293 292 292 292 291 291 291 291 291 291 291 291 291 291 291 291
306 306 308 311 309 308 308 303 298 300 302 302 302 303 304 306 306 304 304 306 306 305 305 304 304 305 304 305 306 305 304 303 303 302 301 300 298 297 297 297 296 296 295 295 294 294 294 294 294 294 294 294 293 293 293 293 293 293 292 293 293 293 293 293 292 292 292 292 291 291 291 291 291 291 290 290 290 290 290 290 290 290 290 290 290 290
306 308 308 309 308 309 309 305 302 306 308 305 302 303 304 304 304 304 304 305 305 306 305 304 303 303 303 304 304 303 302 302 301 300 299 298 297 296 296 295 295 295 294 294 294 294 294 294 294 294 294 293 293 293 293 292 292 292 292 292 292 292 292 292 291 291 291 291 291 291 291 291 291 290 290 290 290 290 290 290 290 290 290 290 290 290
306 308 307 308 309 309 307 303 303 307 310 307 305 305 304 303 303 304 305 306 306 306 305 304 303 302 302 302 302 301 300 300 299 298 297 297 296 296 295 295 295 294 294 294 294 294 294 294 294 294 293 293 293 293 292 292 292 292 292 292 291 291 291 291 291 291 291 291 291 291 291 291 291 290 290 290 290 290 290 290 290 290 290 290 290 290
Wind_Speed
4 3 2 5 7 8 9 10 7 5 6 5 4 3 3 4 5 5 5 6 3 4 6 8 9 11 11 11 14 13 14 18 22 24 27 30 32 34 36 37 38 36 35 33 31 29 26 25 23 22 21 19 18 16 16 16 18 19 21 22 22 23 24 22 21 22 26 25 22 21 20 18 18 17 16 16 16 16 15 14 13 12 12 11 10 10
4 4 7 10 10 8 8 8 5 5 5 3 3 2 3 3 6 7 4 5 1 4 6 5 6 11 11 11 15 12 9 16 25 26 30 34 35 37 38 39 39 37 36 34 32 30 28 26 25 24 23 21 19 18 18 18 19 20 21 21 21 23 25 24 21 22 25 21 20 22 20 19 18 16 16 17 17 16 15 15 14 13 12 11 11 11
1 4 12 11 5 6 4 4 5 4 3 1 2 1 3 3 4 6 4 4 0 4 5 4 4 10 12 11 14 15 15 21 31 33 35 37 35 38 40 39 39 38 38 37 35 33 30 28 27 26 25 23 21 19 18 19 20 21 22 21 20 22 25 26 24 22 22 21 21 20 19 19 18 16 17 18 18 17 17 16 15 14 13 12 13 13
3 6 12 9 8 7 3 4 6 3 1 3 3 2 3 3 2 4 4 3 1 2 3 4 5 8 11 9 10 21 25 26 32 34 36 37 37 40 40 39 40 40 41 39 37 36 32 31 29 28 27 25 22 21 20 21 22 24 25 23 22 22 24 26 25 23 24 25 23 21 20 19 18 18 20 20 19 19 18 17 16 15 15 14 14 14
6 6 4 6 9 8 5 5 7 5 3 5 5 6 5 4 6 6 4 4 3 3 2 3 6 6 9 9 8 13 14 19 28 28 31 38 39 39 37 36 39 40 41 41 39 38 35 34 33 30 29 26 24 23 23 22 23 25 26 24 24 23 23 25 25 25 27 26 24 22 22 21 21 22 23 23 22 21 20 19 18 18 18 17 16 16
8 5 4 7 5 7 7 4 6 7 4 5 6 10 10 8 8 6 3 5 4 5 3 3 4 6 5 7 7 6 4 10 19 19 26 37 36 36 37 37 38 37 38 40 39 39 38 36 34 32 30 28 26 25 24 22 22 24 24 24 26 24 22 24 26 26 26 23 23 23 23 24 26 27 26 24 24 23 21 21 21 22 21 19 17 17
5 5 6 7 6 7 6 4 6 8 5 4 5 9 11 9 6 5 2 1 1 4 3 3 2 7 7 7 7 5 5 10 12 11 21 31 30 32 37 38 38 37 37 38 38 39 38 37 36 33 31 30 28 26 24 22 22 24 24 25 26 25 23 25 25 25 23 22 23 23 23 24 26 28 27 25 24 23 24 24 24 23 22 20 18 17
3 5 4 6 6 6 6 5 6 8 7 4 5 6 8 8 7 7 5 4 4 3 4 2 2 5 8 7 4 3 7 11 12 12 17 24 27 30 34 36 36 37 38 39 39 40 40 39 37 34 32 30 29 27 25 24 25 25 25 26 27 25 25 26 26 24 24 24 24 23 23 25 27 27 28 27 26 26 27 27 25 24 22 21 18 16
4 7 8 8 5 4 6 5 7 11 5 5 3 6 6 6 6 4 5 4 1 2 5 4 1 3 7 6 4 3 4 10 13 14 15 19 24 27 31 33 34 36 37 38 39 40 40 40 37 34 32 30 29 28 26 27 27 25 25 27 28 27 27 27 28 27 26 26 25 23 25 28 29 28 28 29 29 29 29 27 25 24 22 21 19 16
1 5 8 9 6 6 5 2 8 12 5 4 6 7 5 5 5 4 4 3 2 1 7 6 3 3 7 4 1 2 2 9 12 12 11 13 17 20 24 27 30 33 34 36 37 37 38 38 36 34 32 31 30 28 27 28 27 27 27 27 29 30 28 28 28 28 27 27 26 24 26 30 31 31 30 31 32 31 29 27 26 24 22 21 19 16
2 0 3 5 4 5 5 3 2 7 7 8 7 6 6 6 5 3 2 4 1 4 8 8 9 7 6 3 4 4 5 7 8 8 8 9 12 14 15 19 24 29 32 34 35 35 36 36 35 34 33 32 31 29 29 30 29 28 30 30 29 29 29 28 29 29 28 27 26 25 27 29 31 32 33 34 33 31 30 28 26 24 22 20 18 16
4 0 1 3 4 6 8 5 3 3 6 7 4 4 4 4 4 4 4 4 1 6 5 5 6 8 8 6 4 6 7 7 8 8 7 8 9 9 10 13 18 24 29 32 33 35 36 37 37 36 35 34 32 32 32 33 31 30 32 33 31 30 30 29 30 30 28 27 26 26 27 28 30 33 34 33 32 30 29 27 25 24 22 20 19 16
2 4 3 1 4 7 7 4 4 3 3 4 4 6 4 3 3 3 3 0 3 7 3 1 2 4 9 8 7 9 11 11 10 10 11 12 13 11 9 11 14 19 25 30 33 35 37 39 39 38 37 36 35 35 35 35 33 33 35 34 31 32 32 31 31 30 29 28 27 27 27 28 31 34 34 31 29 28 27 26 24 23 22 20 19 17
3 5 2 1 3 8 10 6 3 1 4 6 5 6 5 2 0 3 4 2 4 6 3 1 1 3 5 6 11 15 16 17 16 16 17 18 19 17 15 14 15 18 23 28 32 35 37 40 41 40 38 38 37 36 36 37 36 35 36 36 33 33 33 32 33 32 30 29 28 28 28 29 33 35 33 30 28 26 25 24 22 21 20 19 17 15
5 6 5 6 4 10 12 8 6 6 5 5 4 5 5 5 5 4 4 4 5 4 4 2 1 4 3 3 8 12 14 19 23 23 22 24 25 22 19 19 19 21 23 27 30 34 37 39 40 40 39 38 38 37 37 38 37 36 36 36 35 35 34 34 34 33 32 30 30 30 29 31 35 34 32 30 28 25 24 23 21 20 19 18 16 15
5 7 6 3 3 12 12 6 7 8 3 3 3 4 4 6 6 3 3 4 2 3 4 2 4 5 4 6 8 9 10 14 19 20 21 25 24 19 19 21 22 24 25 27 30 33 36 39 40 40 39 38 38 38 38 39 39 37 36 37 37 36 36 35 35 34 33 32 31 31 32 34 36 34 32 30 28 26 24 22 22 21 20 18 17 15
3 5 4 2 2 5 6 5 5 4 4 2 3 4 4 4 5 2 3 1 3 3 4 3 5 5 3 8 9 8 10 11 11 12 17 21 18 16 20 22 23 25 27 29 31 32 35 38 40 41 40 39 39 39 39 39 39 38 37 38 38 37 37 37 36 35 34 33 33 33 34 37 37 35 32 31 29 27 25 24 23 22 21 19 17 15
5 3 4 2 1 3 0 5 5 4 4 5 4 6 3 2 2 2 2 3 3 4 5 2 6 5 2 6 5 1 8 12 11 11 14 16 15 20 24 22 21 24 26 28 30 31 34 37 39 40 40 39 39 38 38 38 38 38 38 39 39 39 39 39 37 36 35 35 35 35 37 38 37 35 33 31 29 27 27 26 25 23 22 20 18 16
4 2 4 1 2 3 2 5 3 5 3 4 4 6 4 2 1 2 2 2 1 4 5 3 4 4 6 6 2 3 10 12 12 11 10 12 17 25 27 23 21 22 24 28 30 32 35 36 38 39 39 38 38 37 37 37 38 39 39 39 39 39 39 38 37 36 36 37 37 37 38 39 37 35 34 32 30 29 28 27 26 24 22 21 19 16
3 3 3 1 0 1 2 2 4 1 2 4 3 3 2 2 4 3 3 3 3 3 4 3 3 4 6 7 7 10 11 10 10 10 8 13 22 24 23 22 22 23 24 27 30 32 34 35 37 38 38 37 36 37 38 38 38 39 40 40 40 40 39 38 37 36 38 39 39 39 40 39 38 37 35 33 32 31 29 28 27 25 23 21 19 17
2 4 4 2 3 1 2 4 8 10 6 3 4 5 2 1 2 1 1 2 4 2 2 3 7 6 4 5 8 11 10 9 11 9 8 16 21 18 17 19 22 23 24 25 28 31 33 34 35 36 36 35 35 36 38 39 39 39 41 41 41 41 40 40 38 38 39 41 41 41 41 40 39 38 36 35 33 32 30 29 27 25 24 22 20 18
3 3 4 2 1 4 5 4 5 9 8 7 8 8 9 7 4 2 3 2 3 2 4 3 8 10 4 4 7 8 7 8 10 9 10 17 19 16 17 19 19 21 23 24 26 28 31 32 33 34 35 35 36 37 39 41 41 41 42 42 42 42 42 41 39 39 41 42 43 42 42 41 40 39 38 36 35 34 32 30 28 27 25 23 21 20
5 3 3 3 4 6 5 4 1 3 2 3 3 5 7 6 6 6 5 4 3 2 3 4 5 10 3 4 6 6 6 6 7 8 10 17 21 19 20 19 18 19 21 22 24 26 29 30 31 32 34 35 36 38 40 42 43 43 43 43 43 43 43 42 40 40 42 43 44 43 43 42 41 41 40 38 37 36 34 32 30 28 27 25 23 21
4 3 4 3 2 3 4 5 2 2 2 1 1 2 6 7 8 6 4 4 4 5 4 3 6 8 2 2 4 4 5 7 9 10 11 15 18 19 20 19 17 18 19 21 23 25 28 29 30 32 34 36 37 38 41 43 44 45 44 44 45 45 44 43 41 41 43 44 44 44 44 44 43 42 41 41 39 37 36 33 31 30 28 26 25 23
6 3 4 3 2 3 3 3 2 2 3 3 3 4 8 12 9 3 1 3 3 8 10 6 9 9 2 4 2 2 5 6 10 11 10 12 15 17 19 18 17 18 18 21 24 25 28 30 31 33 34 36 38 39 41 43 45 46 46 46 46 46 45 44 42 42 44 45 45 45 46 46 45 45 44 42 41 39 37 35 33 32 30 28 26 24
9 5 7 7 7 8 8 7 6 5 3 2 4 8 10 12 12 7 3 4 7 9 10 9 12 7 1 4 5 4 4 5 9 10 10 13 15 17 19 18 17 18 19 20 23 25 28 29 31 32 33 35 37 39 41 43 46 48 47 47 47 47 46 45 44 44 45 46 46 46 47 48 47 47 45 43 41 40 38 36 35 33 32 30 28 26
4 3 11 12 13 15 13 7 4 9 8 7 10 13 13 13 14 11 6 8 8 4 5 13 17 11 7 5 6 6 5 6 8 8 11 16 16 17 19 19 18 18 19 20 21 24 27 30 32 32 33 34 36 38 40 43 46 48 48 48 48 48 47 46 46 46 46 47 47 47 48 49 48 47 45 44 42 41 39 37 36 35 33 31 29 27
2 3 13 15 18 20 17 8 9 13 14 15 15 15 16 15 14 12 13 15 8 4 9 18 13 14 17 11 9 10 7 5 6 10 15 17 16 17 19 19 19 18 19 20 21 24 27 30 33 33 33 34 36 38 40 42 45 48 49 49 49 49 49 48 47 47 47 48 48 47 48 48 47 46 45 44 43 42 40 39 38 36 34 33 31 29
2 5 11 14 18 21 18 9 11 12 12 13 16 17 17 17 17 18 22 21 12 9 18 18 10 13 22 16 12 11 8 10 14 17 20 17 16 18 19 19 20 20 21 22 24 26 27 29 33 34 34 34 36 38 40 42 44 47 49 50 50 50 50 49 48 48 48 49 49 47 47 47 47 46 46 45 44 43 42 40 39 37 35 34 33 31
3 6 9 12 15 19 19 12 10 11 9 9 13 16 17 18 21 23 25 24 18 16 22 19 11 17 21 13 10 10 14 20 20 17 18 19 21 23 21 21 22 22 23 24 26 28 28 29 33 34 34 35 36 37 39 42 44 47 49 51 51 51 51 49 49 49 49 49 48 47 46 47 47 47 47 47 46 45 43 42 40 39 37 36 34 33
5 6 6 8 9 13 19 15 10 11 11 10 10 11 14 18 22 24 23 20 16 17 23 21 17 19 14 6 7 11 16 17 14 14 20 24 25 25 24 25 25 25 26 27 29 31 30 30 33 34 34 34 35 36 38 40 44 46 48 50 50 51 51 50 50 49 49 48 47 46 46 47 48 47 47 48 47 46 45 43 41 40 38 37 36 35
6 5 2 4 6 12 18 17 11 8 7 10 12 13 18 20 19 19 18 17 17 18 21 18 15 18 11 4 5 9 12 11 13 18 23 25 27 27 27 29 29 30 32 32 32 33 31 32 33 33 33 33 34 36 36 38 41 44 46 48 49 50 51 51 50 49 49 48 47 46 46 47 48 48 48 48 48 47 46 44 43 41 40 39 38 36
7 6 4 5 8 12 14 11 8 5 3 9 15 22 26 21 16 14 15 18 19 17 16 14 15 21 16 6 5 6 8 10 15 22 26 27 29 30 31 32 32 33 35 34 34 34 32 31 31 30 30 29 30 32 32 34 37 39 42 45 47 49 50 50 50 49 49 48 47 47 46 47 49 49 49 48 48 47 46 45 44 43 42 41 40 38
8 10 8 6 7 11 8 6 7 6 9 12 12 17 22 19 17 18 18 20 19 15 14 14 16 19 16 9 8 10 11 16 22 28 32 32 32 32 33 33 33 34 34 34 33 31 27 25 26 26 26 25 25 27 28 30 32 34 39 43 46 48 49 49 49 49 49 48 47 47 47 48 49 49 48 48 47 47 47 47 46 44 43 42 41 39
7 9 6 3 5 6 4 6 5 9 12 9 3 3 11 16 20 20 18 18 17 16 17 19 19 20 17 14 15 16 19 23 27 31 32 31 31 32 31 33 34 33 34 33 30 26 21 21 22 22 22 21 21 23 25 27 28 30 34 37 41 44 45 46 47 47 47 48 47 48 49 49 49 49 48 48 48 48 48 48 47 46 45 44 42 41
7 7 3 2 3 2 3 7 9 6 3 5 4 1 3 6 10 12 13 16 18 19 19 22 24 24 20 20 23 23 21 20 22 26 28 26 27 29 30 31 31 29 28 26 22 18 15 15 15 14 14 14 15 18 20 21 23 26 28 30 34 38 40 42 44 45 46 47 48 48 49 48 48 49 49 48 48 49 49 49 48 48 47 45 43 41
9 7 3 3 5 4 5 8 6 4 5 7 7 4 5 7 11 13 11 14 19 21 21 20 22 23 19 23 30 27 17 12 12 18 23 23 24 26 26 25 22 19 17 14 12 10 9 9 9 9 9 10 11 13 14 16 19 22 24 26 28 31 35 39 41 42 44 45 46 47 47 47 48 49 49 49 50 50 50 49 49 49 47 46 44 42
10 9 8 6 5 5 7 8 5 4 9 11 8 5 9 13 14 14 9 11 14 18 21 19 19 20 18 21 26 19 9 6 9 13 19 23 25 24 21 19 17 14 13 13 12 12 11 12 12 12 11 12 12 12 13 15 17 19 21 23 24 27 30 33 34 37 40 42 43 44 44 46 47 48 49 50 50 49 49 49 49 49 48 46 44 42
9 7 9 8 5 5 7 8 7 7 9 10 6 5 10 16 15 10 5 10 9 10 19 20 17 20 21 20 18 10 6 6 11 14 17 20 21 20 18 17 16 16 17 17 14 14 15 15 15 14 14 15 14 14 15 15 16 19 20 21 22 25 27 28 29 31 34 36 37 39 41 43 45 46 47 48 48 47 47 47 48 48 47 46 43 41
8 5 6 8 8 8 8 7 6 5 6 6 5 4 10 19 19 12 3 11 6 10 23 26 21 23 26 21 14 10 8 12 11 9 11 14 17 19 18 17 16 17 17 17 16 17 17 16 16 16 16 16 16 15 16 16 17 18 19 20 22 24 24 24 25 26 28 30 32 33 35 37 39 40 41 42 43 43 44 45 46 46 46 45 44 43
5 4 5 8 9 10 11 9 5 3 5 5 6 10 16 18 13 7 8 8 7 10 18 26 27 26 22 19 17 13 15 17 10 4 8 15 18 20 19 17 16 15 15 16 18 18 18 16 16 16 15 15 16 15 16 17 18 18 19 20 21 21 20 20 21 21 23 24 25 27 28 29 31 32 33 35 37 38 40 42 43 44 45 45 46 46
6 4 4 7 8 8 8 7 4 5 6 8 11 16 18 12 5 8 5 5 11 11 11 17 22 21 17 19 22 21 18 15 11 9 13 18 20 20 18 16 16 15 15 16 17 17 17 17 17 17 17 16 17 17 17 17 17 17 17 17 16 13 13 14 15 16 17 18 18 19 21 22 23 25 26 28 31 33 35 37 39 41 43 45 47 48
7 5 4 6 6 4 4 6 6 6 4 18 19 9 7 5 4 8 8 6 8 12 11 12 14 13 14 19 21 20 16 14 14 16 18 19 18 17 17 17 16 16 16 17 17 17 17 17 18 18 17 17 17 16 15 14 13 13 12 10 7 7 8 9 10 11 12 13 14 14 15 16 17 19 21 23 25 27 29 31 33 36 38 40 43 46
6 6 5 5 6 6 6 8 6 2 8 26 23 8 12 15 8 8 12 9 9 12 13 12 10 9 13 17 19 19 18 17 18 18 18 18 17 16 17 17 16 17 17 17 18 17 16 16 16 16 15 14 13 12 11 10 9 8 7 7 7 8 9 8 9 9 10 10 11 11 12 12 13 15 17 19 21 23 25 26 28 30 32 35 37 40
7 6 4 4 5 5 4 5 3 1 13 29 21 7 18 26 15 8 15 17 16 16 13 11 11 11 12 16 19 20 18 18 19 19 18 18 18 17 18 17 16 16 16 16 16 16 15 13 13 13 13 12 12 10 10 9 8 8 8 9 9 10 10 9 10 10 10 10 10 10 10 10 11 13 14 15 17 19 21 22 24 26 28 29 32 34
3 3 4 2 2 2 2 2 3 1 11 25 19 7 13 25 19 12 16 17 17 16 13 11 12 13 14 17 19 20 18 18 19 19 18 19 18 17 17 17 17 16 16 16 16 16 15 14 13 13 13 12 12 11 11 10 10 10 10 10 10 10 10 11 11 11 11 11 10 10 11 11 11 12 13 14 15 16 18 19 21 22 24 26 27 29
2 4 4 2 2 4 4 4 6 5 11 23 23 12 12 22 22 18 15 13 13 13 12 10 11 12 14 17 19 20 21 21 21 20 19 18 17 17 17 17 18 17 16 16 16 16 16 15 14 14 13 12 12 11 10 10 10 9 9 9 9 9 10 10 10 10 10 10 10 10 10 10 10 10 11 12 13 14 15 17 18 19 21 22 23 25
5 9 6 3 5 5 4 4 4 5 10 20 23 17 15 22 24 20 15 14 14 13 12 11 11 12 14 16 18 20 22 23 22 21 20 18 17 17 17 17 17 18 18 17 17 16 16 14 13 13 12 11 11 10 9 9 8 8 8 8 7 8 8 8 8 8 8 8 8 8 8 8 8 8 9 9 10 11 12 13 14 16 17 17 18 20
8 10 6 4 4 3 4 4 3 1 5 14 21 20 19 23 23 19 16 16 16 15 13 13 12 12 14 16 18 20 22 23 22 20 20 19 18 18 18 18 18 18 18 18 17 16 15 13 13 13 12 11 11 10 9 9 8 8 8 7 7 8 8 8 8 8 8 8 7 7 7 7 8 8 9 9 10 10 11 12 13 15 15 16 18 20
9 7 4 4 6 7 7 7 11 5 2 12 24 27 23 22 23 21 18 18 17 15 15 16 15 14 15 16 17 19 21 22 21 20 19 18 18 19 19 20 20 19 19 18 17 16 15 14 14 13 12 11 11 10 9 9 8 8 8 7 7 8 8 8 9 8 8 8 8 8 9 9 9 10 10 11 12 12 13 14 16 17 18 18 20 22
9 9 9 8 7 8 8 15 21 12 3 12 30 35 27 22 23 23 21 19 19 17 15 17 19 18 17 17 17 17 18 19 20 19 18 18 19 20 20 20 20 19 19 17 16 16 15 14 14 13 12 12 11 10 10 9 9 8 8 8 8 9 9 10 10 10 10 10 10 10 11 11 11 12 12 13 14 15 16 17 18 19 20 20 21 23
Wind_Direction
142 131 158 211 215 201 200 199 194 166 138 127 133 149 206 225 267 251 252 281 191 166 244 225 228 249 251 261 265 251 224 221 235 241 240 240 239 240 240 240 240 240 241 238 233 232 232 232 231 230 230 230 229 226 221 214 207 203 205 210 205 199 199 200 207 214 208 205 211 213 210 207 204 207 206 195 190 185 179 176 173 169 169 169 169 165
125 155 220 227 215 194 197 200 171 129 124 100 124 194 258 221 255 254 242 294 184 170 263 245 233 258 253 254 265 252 205 222 233 234 240 241 239 240 240 240 240 240 240 236 233 230 229 229 227 226 227 226 226 222 218 212 208 205 203 210 211 202 201 205 210 212 209 210 215 214 214 214 211 207 198 189 183 179 174 172 168 169 172 171 173 171
123 216 239 231 175 133 153 171 160 157 149 114 129 172 266 245 275 281 273 314 102 177 268 293 260 265 260 251 256 245 224 235 240 238 244 244 241 241 240 239 239 237 236 234 231 229 226 227 224 223 224 224 224 221 219 212 206 207 204 206 208 203 204 205 204 209 213 213 211 210 210 208 207 198 189 187 182 177 175 174 172 174 175 174 172 163
179 244 247 213 148 134 134 129 132 131 189 202 174 168 246 246 269 280 290 323 353 196 268 306 296 276 268 256 248 246 239 245 250 247 249 248 245 246 246 244 241 237 235 232 229 226 223 223 222 222 222 222 221 218 216 211 205 206 206 206 205 202 205 206 208 211 208 205 203 204 206 206 207 197 188 185 181 178 179 178 177 176 171 166 159 149
217 252 241 155 156 167 151 122 135 150 237 244 204 195 220 226 218 231 288 329 338 342 4 344 305 277 264 258 249 256 249 252 256 252 251 250 247 248 249 248 245 239 237 234 229 226 222 223 223 222 220 220 220 219 218 215 209 206 206 206 203 202 206 208 211 208 198 196 199 202 206 206 203 194 188 187 182 179 181 180 175 167 159 154 151 149
249 243 135 122 152 168 154 157 171 171 208 271 228 204 213 218 225 239 324 2 358 323 341 27 305 274 278 269 255 279 304 262 258 250 248 251 249 246 245 245 243 240 238 236 234 230 225 223 223 221 219 219 221 222 222 217 210 207 205 204 202 202 205 204 202 197 192 198 208 215 214 205 198 192 187 188 185 180 178 175 167 158 153 155 158 158
244 210 141 126 147 158 167 206 212 179 166 266 245 205 210 210 215 231 195 79 275 263 290 69 233 271 301 284 251 254 269 261 260 252 250 252 249 244 244 244 242 238 235 233 232 229 224 223 222 221 220 221 222 221 218 212 208 206 202 201 201 199 200 198 194 196 201 210 221 228 223 207 200 193 185 184 187 180 174 169 162 158 157 161 165 163
184 188 146 123 133 145 172 215 217 172 150 237 251 181 187 189 198 209 177 190 233 262 312 18 163 271 287 276 265 247 258 270 269 262 257 254 250 247 247 246 242 239 236 233 229 225 222 223 224 225 223 222 221 218 215 208 204 206 203 200 201 201 203 204 206 213 218 221 225 227 217 205 201 197 187 181 181 176 171 167 164 163 164 165 167 165
150 181 189 164 153 173 194 211 182 157 159 245 218 132 150 163 169 162 145 191 290 18 297 287 130 267 268 264 317 341 253 267 268 260 259 257 254 253 252 249 243 240 237 234 231 227 224 223 224 225 224 222 219 217 214 208 204 205 203 202 204 207 208 210 214 219 217 217 223 222 211 202 198 197 190 180 176 173 171 170 168 169 169 167 167 165
137 194 195 168 172 202 202 219 170 165 186 196 133 94 79 79 82 84 111 135 43 344 252 240 162 242 266 237 266 5 230 250 262 261 263 265 261 257 256 251 244 238 235 233 232 231 227 224 222 222 221 219 218 215 212 208 205 203 203 204 203 204 207 209 210 212 212 215 220 218 208 200 196 195 189 179 174 174 173 174 173 172 171 169 168 167
323 133 183 172 185 178 136 76 153 165 154 133 110 66 49 33 42 48 52 83 30 271 243 222 187 200 265 254 198 211 213 226 247 265 276 276 264 257 257 252 242 236 232 230 229 228 225 221 218 218 218 218 216 212 208 207 207 204 205 206 202 203 207 209 208 212 216 217 217 212 204 201 199 194 187 179 176 176 177 178 177 174 173 172 170 169
335 42 216 206 177 133 105 69 31 92 128 121 89 79 70 347 10 20 357 51 253 257 247 232 191 188 238 260 230 239 250 237 231 246 267 275 272 266 260 253 243 236 233 229 226 224 220 216 214 214 215 216 213 209 206 207 209 206 203 204 203 206 209 210 211 214 215 212 209 207 204 206 204 195 187 183 181 180 181 182 181 177 176 175 173 172
276 233 266 299 184 162 124 81 39 37 101 112 99 109 105 326 352 343 310 84 235 256 278 349 126 200 240 252 251 257 264 254 236 233 242 256 267 273 274 264 249 237 232 228 225 222 219 215 214 213 214 214 213 211 208 207 209 206 203 205 208 209 209 210 212 212 211 209 208 206 206 208 204 196 190 188 186 185 185 186 186 184 183 181 178 174
261 291 280 150 222 192 168 157 168 181 171 162 145 142 146 147 219 273 270 271 265 269 297 359 158 250 266 257 239 237 245 250 254 257 256 259 263 265 270 270 258 243 233 229 225 223 221 217 215 215 214 214 214 213 210 207 207 206 206 209 212 211 209 210 210 210 210 209 208 208 208 207 201 196 194 192 191 190 189 190 190 190 188 185 182 176
218 280 209 181 195 185 185 189 166 136 158 185 152 141 161 159 173 220 220 232 261 286 299 286 198 204 207 251 241 237 254 260 261 265 267 267 266 264 261 257 251 242 233 228 226 224 223 219 217 216 216 216 216 214 211 208 206 207 207 209 210 209 209 210 210 210 210 210 209 208 208 204 200 198 198 195 194 194 193 192 191 191 188 185 182 177
204 263 238 217 151 168 181 184 128 109 139 225 116 123 193 183 171 214 209 181 191 300 295 230 223 217 210 270 268 257 271 267 259 262 263 264 266 264 256 248 243 239 233 227 225 224 223 220 218 217 217 217 216 216 213 209 207 206 206 207 209 210 211 211 211 211 212 211 209 207 204 200 199 200 200 197 196 196 194 193 193 192 188 185 184 181
179 276 287 3 61 173 181 163 133 134 176 169 135 176 207 170 151 196 264 59 80 272 270 200 239 287 310 281 270 247 255 265 267 263 255 256 262 262 253 244 239 237 233 229 225 224 222 220 218 218 217 217 217 216 215 213 209 207 206 207 208 210 211 212 213 213 213 211 207 204 200 199 200 202 203 200 197 195 194 193 194 194 190 186 186 186
169 256 293 98 171 261 129 113 79 42 121 127 179 198 160 84 98 126 253 346 43 258 272 219 238 274 274 272 301 189 234 256 262 255 255 260 259 254 251 244 238 237 235 231 227 225 224 221 219 218 218 218 218 219 219 216 212 208 208 209 210 211 210 211 213 213 212 209 204 201 198 199 202 204 204 201 199 198 197 196 196 195 193 188 187 189
167 228 298 79 185 279 23 109 78 11 65 125 176 177 128 128 205 123 174 234 209 253 283 286 261 248 207 228 285 194 217 236 250 254 262 264 251 248 248 242 236 234 231 229 226 224 223 221 220 218 218 219 219 220 220 218 213 209 209 210 212 214 212 212 213 212 211 206 201 199 198 201 203 204 204 202 200 201 201 201 200 196 194 192 192 193
153 199 264 337 253 302 16 160 184 212 23 50 100 146 117 147 177 164 165 174 173 234 284 313 302 249 211 205 200 215 221 217 236 252 254 252 252 252 249 242 237 233 231 230 227 227 225 222 221 220 220 220 219 220 220 218 214 210 209 210 213 215 215 214 214 212 209 204 200 199 200 203 205 205 204 203 203 204 205 206 204 199 196 197 197 197
132 207 235 332 344 189 197 214 192 179 169 149 155 171 183 108 105 156 195 134 136 173 232 289 286 264 226 194 194 211 220 206 217 231 238 249 256 265 265 254 245 239 236 234 231 229 227 223 222 220 220 221 220 220 220 218 216 212 210 211 213 214 214 214 213 212 209 203 199 199 202 205 206 205 205 205 205 206 208 208 206 202 201 201 201 202
190 197 182 160 240 206 222 253 213 190 181 178 184 188 184 171 146 168 236 207 131 182 187 192 276 272 233 188 201 206 205 205 217 220 239 259 264 273 278 269 257 246 241 238 235 232 230 225 223 221 219 219 219 219 218 217 216 214 211 212 213 214 214 213 213 210 208 205 201 201 204 206 207 206 206 206 206 207 209 209 207 205 204 204 204 205
167 118 163 197 223 220 241 283 251 198 164 148 194 198 177 171 166 172 214 216 162 223 184 126 274 276 243 185 208 215 217 229 239 222 237 270 278 279 278 275 266 253 243 240 237 235 233 229 225 222 220 219 219 219 218 217 216 215 213 213 214 215 214 214 213 211 208 207 205 203 205 207 209 208 208 208 208 209 210 210 209 207 207 207 207 206
129 115 197 237 321 311 309 330 6 86 111 133 243 171 161 190 194 178 195 184 165 212 181 125 259 261 268 244 233 257 267 261 259 243 239 267 281 280 276 275 270 257 244 238 236 234 234 231 226 223 221 220 220 219 219 218 217 216 215 215 215 216 216 215 215 213 210 210 209 208 207 208 210 210 210 210 210 210 211 211 210 209 209 209 209 209
166 185 188 187 297 314 325 319 282 213 172 194 217 191 190 198 190 164 86 128 202 220 180 175 247 241 251 312 292 285 285 270 259 252 247 259 271 275 276 276 272 263 248 236 233 231 232 231 228 225 223 222 221 221 220 219 218 217 216 216 216 217 217 218 217 215 213 212 212 212 211 210 211 212 212 212 212 212 213 212 211 211 210 210 210 210
171 191 181 187 220 228 227 231 219 185 155 187 208 200 204 198 186 192 204 189 232 223 171 194 242 241 355 304 269 253 267 266 256 245 240 249 259 269 275 276 272 263 250 240 235 233 233 233 232 229 226 225 224 223 222 221 220 219 218 218 218 218 219 220 220 218 216 215 215 216 215 213 212 213 214 214 213 214 214 213 213 212 212 212 212 211
150 196 192 198 215 223 231 232 154 128 145 203 211 197 202 203 194 195 206 214 222 192 178 221 233 244 255 235 233 244 230 238 255 244 235 242 252 264 271 273 270 262 253 245 239 236 235 235 234 231 228 227 226 225 224 223 222 221 220 220 220 220 221 222 222 221 219 217 217 218 218 215 214 214 215 216 215 216 216 215 215 214 214 214 214 215
104 208 202 210 221 229 238 220 149 147 171 199 204 196 202 203 193 195 214 220 198 138 237 236 218 239 252 229 215 238 230 229 253 244 240 245 253 264 268 268 266 260 252 245 243 242 239 237 236 233 230 228 227 226 225 225 224 223 222 222 221 221 222 223 224 223 221 220 219 220 220 218 216 216 217 218 217 218 218 217 216 216 216 216 217 218
145 209 206 215 225 235 243 214 164 171 186 196 199 199 201 197 192 201 217 222 197 184 241 241 184 219 249 242 226 226 212 222 236 238 244 249 255 259 261 260 260 258 252 250 251 250 246 241 238 235 232 229 227 227 226 225 226 225 224 224 223 223 224 225 226 225 224 222 221 221 221 220 219 218 219 219 219 220 220 219 218 218 218 219 220 220
178 211 205 210 223 237 243 224 179 185 200 201 202 201 199 196 197 206 217 222 212 215 243 248 224 236 249 246 229 213 212 230 240 242 243 244 247 251 251 252 255 256 255 258 261 258 252 246 241 237 234 232 230 229 228 227 227 226 225 225 224 225 225 226 227 227 225 225 223 223 222 221 220 220 220 221 221 222 221 220 220 220 220 221 222 222
195 216 198 192 218 239 243 236 206 198 213 221 218 211 207 205 206 210 217 220 217 227 242 248 253 258 255 226 218 211 209 226 241 239 236 238 241 244 245 247 252 255 258 262 264 261 254 247 241 237 235 235 234 233 230 229 228 227 227 227 226 226 226 227 228 228 227 227 226 225 225 223 222 222 222 223 223 223 223 223 222 223 223 223 224 223
192 217 144 143 211 237 241 240 225 205 219 236 236 225 217 215 213 212 216 215 210 220 235 243 252 257 248 177 201 210 196 207 227 231 236 241 240 240 242 245 250 254 257 261 262 259 254 247 243 240 238 237 237 236 234 233 231 230 229 229 228 228 227 228 229 229 229 228 228 228 227 226 225 225 225 225 225 225 225 225 225 225 225 226 226 225
175 196 189 169 210 240 242 224 196 167 190 237 238 228 222 219 214 213 220 222 214 210 221 227 233 245 246 213 203 219 197 204 224 230 236 242 241 240 241 244 249 254 257 259 259 257 256 251 248 246 244 241 241 242 241 238 236 235 233 231 230 229 229 229 230 230 229 229 229 229 230 229 228 227 227 227 227 227 227 227 227 228 228 228 227 226
181 196 202 186 210 239 228 158 140 178 212 228 234 226 221 214 206 211 219 221 216 210 220 231 237 247 251 232 220 231 225 225 234 240 242 245 244 243 244 246 250 255 257 258 258 258 258 254 251 250 246 243 246 247 245 241 240 239 235 232 230 230 230 230 230 230 231 231 231 232 232 232 231 230 230 230 230 229 229 229 230 230 230 230 229 228
187 196 194 186 215 229 172 134 170 214 219 236 274 214 215 209 203 211 222 226 220 216 226 240 246 249 250 244 239 241 242 242 243 246 247 246 243 243 246 250 252 254 254 256 257 258 252 246 245 245 241 240 244 245 244 241 240 239 237 236 235 234 234 234 234 234 234 234 234 234 234 234 233 233 233 232 232 232 231 231 231 231 231 231 230 230
176 189 179 175 201 197 144 180 213 231 263 288 296 235 197 191 187 202 230 239 228 218 220 229 238 244 248 250 250 248 250 254 252 247 244 242 243 244 246 249 252 253 256 259 257 251 242 236 237 237 235 237 238 237 237 236 237 237 238 239 239 239 239 238 237 237 237 237 237 236 236 236 236 235 235 234 234 234 233 233 233 233 233 232 231 231
170 179 189 199 199 198 200 211 232 313 321 276 253 214 165 155 164 180 215 239 230 220 219 222 234 243 245 250 253 251 249 260 268 255 244 239 241 243 243 246 250 252 252 247 232 219 217 217 213 211 215 218 219 223 226 227 231 234 235 236 238 239 239 239 240 241 241 241 240 240 240 240 239 238 238 237 236 236 235 235 234 234 233 232 231 232
186 185 188 200 207 198 210 229 239 250 251 245 233 195 176 177 175 171 193 243 242 221 211 214 231 239 239 246 248 241 229 254 271 259 242 234 234 238 241 242 239 225 204 192 192 197 196 192 189 188 194 200 204 212 219 223 227 230 233 235 236 238 239 241 243 244 245 245 245 244 244 244 244 243 242 241 240 239 238 237 236 235 235 234 234 235
212 203 192 199 206 191 208 230 220 219 245 243 215 179 173 170 154 126 170 248 253 202 191 199 220 232 232 234 226 190 156 236 257 255 240 228 227 231 232 224 210 193 184 186 193 194 186 180 179 183 191 199 205 211 216 223 228 231 234 236 237 239 241 241 243 245 247 249 249 249 249 249 248 247 246 245 245 243 242 240 239 238 237 237 237 238
216 212 201 207 212 205 210 227 224 230 253 232 195 183 163 151 135 115 201 245 231 169 182 191 207 225 228 220 195 161 182 223 243 256 231 214 214 213 205 196 190 188 191 195 192 185 180 180 186 193 200 204 208 213 216 220 225 227 230 234 236 238 239 241 246 249 251 254 253 253 253 252 252 252 251 251 250 249 248 246 243 241 240 239 239 240
208 208 202 210 218 213 213 225 241 250 238 209 171 163 149 136 134 168 221 221 171 167 188 195 207 223 222 198 182 191 216 224 235 247 203 197 199 194 188 187 190 192 193 192 187 184 185 190 195 199 204 206 208 210 211 213 217 220 223 226 230 233 237 242 248 250 252 253 253 254 255 254 255 256 256 256 255 254 252 250 248 246 244 242 241 241
199 205 204 213 219 218 221 228 240 256 225 164 146 156 154 142 180 216 203 143 155 173 192 200 211 226 221 200 200 210 219 222 225 213 194 191 190 186 185 189 188 187 187 186 186 189 193 196 195 194 195 196 195 197 199 202 206 209 213 219 223 227 232 237 241 243 246 248 250 252 254 255 257 258 258 258 257 256 256 255 253 251 248 246 244 244
184 181 193 210 206 204 232 217 214 262 193 137 130 140 177 189 205 174 140 115 161 177 179 186 202 217 212 204 205 207 204 197 194 190 184 182 182 182 184 184 182 184 185 184 186 188 187 187 185 182 182 183 183 186 188 191 195 200 205 208 204 202 211 219 225 230 235 239 242 247 250 253 255 256 257 258 258 259 260 259 257 255 253 251 249 249
186 186 194 209 196 187 218 215 204 270 160 151 147 167 209 205 199 156 152 152 160 167 167 169 177 189 196 195 189 186 185 178 174 175 172 170 172 173 172 170 170 172 173 172 175 171 167 172 174 171 172 174 175 178 180 180 187 189 179 165 163 176 189 197 205 213 219 225 232 237 242 246 249 252 254 256 257 259 259 259 258 258 257 255 254 254
206 192 167 189 202 192 214 219 192 137 173 174 174 193 201 202 209 187 170 163 158 161 162 159 159 163 177 185 178 172 171 168 166 167 164 160 159 158 157 156 157 160 161 161 162 159 158 166 170 168 168 166 162 162 162 161 161 157 152 156 167 179 186 190 198 206 210 215 221 225 230 236 241 245 249 252 254 255 256 258 258 258 259 259 258 259
221 173 133 145 227 245 258 210 160 170 194 192 197 220 205 202 202 184 170 162 158 161 159 158 164 162 166 176 173 167 167 166 160 156 154 152 152 153 155 156 156 157 158 160 161 159 160 162 162 160 157 152 148 148 146 146 147 150 159 170 178 184 191 197 202 206 209 212 216 218 222 228 232 237 242 245 249 252 254 256 258 259 260 261 260 261
241 180 154 135 174 206 231 199 172 200 210 201 204 217 206 197 194 185 176 170 165 164 159 159 168 163 163 173 174 167 165 164 159 155 155 157 158 160 161 160 158 157 157 159 159 156 156 157 155 150 146 142 143 143 143 148 154 160 169 177 181 187 195 200 205 209 211 212 213 213 217 223 226 232 238 241 245 250 252 255 257 258 259 261 262 263
193 170 166 190 190 189 225 225 196 218 217 206 208 211 198 191 192 188 181 171 162 161 159 157 164 167 165 170 175 169 163 164 166 165 164 167 169 167 166 163 161 159 156 155 154 152 152 154 150 146 145 144 144 146 149 155 160 164 171 176 180 185 190 192 195 198 196 197 202 206 213 220 225 232 239 244 248 252 255 259 262 263 266 269 270 271
138 153 167 184 184 211 271 245 195 257 241 217 215 211 198 193 191 184 174 167 163 165 169 164 165 172 170 167 172 172 165 166 172 172 168 169 171 169 166 164 162 160 157 155 154 153 151 150 146 144 145 146 148 151 156 159 163 166 168 172 178 182 184 187 189 190 193 199 208 215 221 228 234 240 245 249 254 257 260 262 265 267 270 273 273 272
139 169 176 141 170 221 243 195 169 165 230 215 210 206 199 195 192 183 173 170 169 172 177 174 166 165 167 166 170 173 168 166 169 170 168 169 171 169 168 166 164 162 160 159 158 155 151 150 147 144 144 148 150 153 158 162 164 167 170 176 184 189 192 196 199 205 211 217 222 226 230 234 238 243 247 251 255 257 259 261 264 266 269 271 272 274
180 180 177 168 191 223 207 172 176 189 226 205 203 203 198 193 191 186 181 180 180 179 184 185 175 164 162 165 170 175 175 169 167 168 169 170 171 171 170 169 169 167 165 163 161 158 155 154 153 148 148 153 155 157 164 169 170 173 182 189 195 201 206 210 214 219 223 228 230 233 237 239 243 247 251 254 256 257 258 260 263 267 270 273 274 276